User: anonymous   Login
Location: Chenango Forks
(42.2242°N, 75.8278°W)
Time: 19:01:46
(UTC-04:00)
Language:

Coronas F rocket - Orbit

View from above orbital plane
View from above orbital plane
View from above satellite
View from above satellite

Ground track
Ground track

The orbit data is extracted from the following two-line orbital elements,

1 26874U 01032B   15089.18553742  .00031056  00000-0  35452-3 0  9998
2 26874 082.4683 041.7787 0015039 081.2390 279.0570 15.61896230765789
Epoch (UTC): 30 March 2015 04:27:10
Eccentricity: 0.0015039
inclination: 82.4683°
perigee height: 372 km
apogee height: 392 km
right ascension of ascending node: 41.7787°
argument of perigee: 81.2390°
revolutions per day: 15.61896230
mean anomaly at epoch: 279.0570°
orbit number at epoch: 76578

The dashed part of the orbit path shows where the satellite is in the earth's shadow,  

DLR